Погода Атырау

Погода Атырау : погода сейчас, прогноз погоды и архив. Всё, что Вы хотите узнать о погоде Атырау!

Хотите узнать прогноз погоды в Атырау? Тогда Вам сюда: Погода в Атырау

Поиск расширенной информации на нашем сайте:

Другие новости

Новости СМИ2

Главная страница сайта

Новости сайта

03.07.2017

Напоминаем, что на нашем специализированном сайте Метеоцентр.Азия вы можете получить высокодетализированные автоматические прогнозы погоды по пунктам России, СНГ и мира в авиационном формате (включающие направление и скорость ветра, видимость, явления погоды, количество и форму облачности, нижнюю и верхнюю границу облачности).


Погода Атырау - сегодня

Время (UTC), дата Ветер
(°,м/с) 
Видим.   Явления Облачность Т
(°С)
Тd
(°С)
f(%) Тe
(°С)
Pmin
(гПа)
dP
(гПа)
Po
(мм)
O2
(г/м3)
Тmin Tmax R s Состояние
почвы
00 17.04.18 300 (СЗ) 20000 м    ясно 
+7 +1.1 66 +5  1021.6  -0.1  768  302           
03 17.04.18 230 (ЮЗ) 20000 м    ясно 
+6.1 -0.2 64 +5  1021.5  -0.1  768  303           
06 17.04.18 110 (В) 20000 м    3/0 средняя 
[Ac trans]
+13.8 +1.3 43 +14  1022.2  0.7  768  295  +5.4         
09 17.04.18 060 (СВ) 20000 м    6/6 600 м 
[Cu med, cong]
+17.2 +2.5 37 +17  1021.6  -0.7  768  291           
12 17.04.18 050 (СВ) 20000 м    6/6 600 м 
[Cu med, cong]
+16.5 +1.1 35 +16  1021.1  -0.5  767  291           
15 17.04.18 120 (ЮВ) 20000 м    8/0 средняя 
[Ac cuf]
+13.1 +3.6 52 +12  1021  767  295    +18.3       
18 17.04.18 150 (ЮВ) 20000 м    8/0 средняя 
[Ac cuf]
+11.6 +4.8 63 +11  1021.9  0.9  768  296    +18.3       
21 17.04.18 050 (СВ) 20000 м    8/0 средняя 
[Ac trans]
+10.9 +5.5 69 +10  1022.3  0.4  768  297           
00 18.04.18 090 (В) 20000 м    ясно 
+9.9 +5.3 73 +10  1022.4  0.1  769  298           
03 18.04.18 120 (ЮВ) 20000 м    ясно 
+9.8 +6.4 79 +10  1022.7  0.3  769  298           
06 18.04.18 140 (ЮВ) 20000 м    9/0 верхняя 
[Cs]
+15.1 +3.8 47 +15  1022.9  0.2  769  293  +9         
09 18.04.18 340 (С) 20000 м    8/0 верхняя 
[Cs]
+16.8 +4.6 44 +17  1022.5  -0.5  769  291           
12 18.04.18 200 (Ю) 20000 м    8/0 средняя, верхняя 
[Ac cast|Cs]
+15.8 +5.1 49 +15  1021.9  -0.6  768  292           
15 18.04.18 180 (Ю) 20000 м    9/0 средняя, верхняя 
[Ac cast|Cs]
+12.7 +3.6 54 +12  1021.2  -0.6  768  295    +17       
18 18.04.18 180 (Ю) 20000 м    10/0 средняя 
[Ac As]
+12.4 +4.3 58 +12  1020.8  -0.4  767  295    +17       
21 18.04.18 190 (Ю) 20000 м    10/0 средняя 
[Ac As]
+11.5 +5.5 67 +11  1019.3  -1.5  766  295           
00 19.04.18 180 (Ю) 20000 м    10/0 средняя 
[Ac As]
+10.8 +6.4 74 +10  1018.1  -1.2  765  296           
03 19.04.18 170 (Ю) 4000 м  дымка  10/0 средняя 
[Ac As]
+9.4 +7.3 87 +8  1016.2  -1.9  764  296           
06 19.04.18 140 (ЮВ) 20000 м    10/4 600 м средняя 
[Sc|Ac As]
+10.8 +3 59 +10  1015.3  -0.9  763  295  +9.3         
09 19.04.18 120 (ЮВ) 20000 м    10/8 600 м средняя 
[Cu med, cong|Ac As]
+11.7 +5.5 66 +11  1013.7  -1.6  762  294           
12 19.04.18 140 (ЮВ) 20000 м    10/3 1000 м средняя, верхняя 
[Cu med, cong|Ac und|Cs]
+13.8 +4.3 53 +13  1012.5  -1.2  761  291           
15 19.04.18 120 (ЮВ) 20000 м    10/3 1000 м кучево-дожд., средняя, верхняя 
[Cb calv|Ac und|Cs]
+12.5 +5 60 +12  1010.4  -2.1  760  292    +14.5       
18 19.04.18 150 (ЮВ) 20000 м    10/0 средняя 
[Ac As]
+11.4 +5.8 68 +13  1008.5  -1.9  758  292    +14.5       
21 19.04.18 130 (ЮВ) 20000 м    10/0 средняя 
[Ac und]
+10.7 +7.1 78 +11  1007.4  -1.1  757  292           
00 20.04.18 170 (Ю) 20000 м    8/4 300 м верхняя 
[Frnb|Cs]
+10.3 +7.1 81 +9  1005.8  -1.6  756  292           
Время (UTC), дата Ветер
(°,м/с) 
Видим.   Явления Облачность Т
(°С)
Тd
(°С)
f(%) Тe
(°С)
Pmin
(гПа)
dP
(гПа)
Po
(мм)
O2
(г/м3)
Тmin Tmax R s Состояние
почвы

Для получения пояснительной информации подведите курсор к названию столбца.

ПОГОДА Атырау - архив

Всё, что Вы хотите узнать о погоде Атырау - удобно и подробно!

Выберите нужную дату (начиная с 1 января 2015* года) и нажмите кнопку "Найти".
Будут отображены архивные сводки погоды по пункту Атырау, начиная с указанной даты.


Отображать данные в формате CSV (для использования в таблицах Excel)


Внимание! Наш архив погоды предназначен исключительно для личного некоммерческого использования в познавательных целях. Если Вам необходимы официальные справки о состоянии погоды (для производственных, юридических, коммерческих и т.п. целей), обращайтесь в органы Росгидромета.

*Примечание: данная дата относится к архиву по метеостанциям СССР (Россия, СНГ, Балтия).
Архив по метеостанциям Зарубежной Европы и Азии (кроме Китая) хранится 10 дней, по другим регионам земного шара (Китай, Африка, Америка, Австралия, Океания) - 1 день.

Атырау - район местоположения метеостанции


Название, широта, долгота, высота метеостанции:
Атырау (город) 47.1°ш. 51.7°д. -23 м над ур. моря [Казахстан]

Дополнительная информация

В oтличие oт бoльшинства пoгoдных сайтoв мы публикуем пoдрoбную метеoинфoрмацию в детальнoм прoфессиoнальнoм фoрмате.

Характеристики температуры и влажнoсти вoздуха измеряются на высoте 2 м в тени вдали oт зданий и деревьев.
Скoрoсть ветра измеряется на высoте 10 м (на урoвне рoста челoвека скoрoсть ветра ниже в 1.5-2 раза). Если метеoстанция нахoдится в гoрoде или в лесу, тo скoрoсть ветра занижена на 2-4 м/с пo сравнению с oткрытым местoм. Скoрoсть ветра над акватoриями крупных рек и oзёр, а также на вершинах хoлмoв на 2-5 м/с выше, чем в oбычных услoвиях.
Атмoсфернoе давление в разных тoчках местнoсти мoжет значительнo oтличаться oт давления на метеoстанции, в зависимoсти oт услoвий рельефа (при пoдъёме на 10 м давление пoнижается примернo на 1 мм рт.ст.).